User: anonymous   Login
Location: ?ern� Novina
(50.6762°N, 14.8696°E)
Time: 01:34:26
(UTC+00:00)
Language:

MetOp-A - Orbit

View from above orbital plane
View from above orbital plane
View from above satellite
View from above satellite

Ground track
Ground track

The orbit data is extracted from the following two-line orbital elements,

1 29499U 06044A   21136.52830531 -.00000004  00000-0  17147-4 0  9996
2 29499  98.4747 177.0682 0001523  74.5647  60.3643 14.21498625756023
Epoch (UTC): 16 May 2021 12:40:45
Eccentricity: 0.0001523
inclination: 98.4747°
perigee height: 819 km
apogee height: 821 km
right ascension of ascending node: 177.0682°
argument of perigee: 74.5647°
revolutions per day: 14.21498625
mean anomaly at epoch: 60.3643°
orbit number at epoch: 75602

The dashed part of the orbit path shows where the satellite is in the earth's shadow,  

DLR